Weather History for Howell, MI

Change the Weather History Date:

Friday, January 13, 2012

  Actual Average Record
Temperature  
Mean Temperature 24 °F -  
Max Temperature 28 °F 28 °F 57 °F (2005)
Min Temperature 20 °F 15 °F -3 °F (2015)
Degree Days  
Heating Degree Days 41    
Moisture  
Dew Point 20 °F    
Average Humidity 85    
Maximum Humidity 94    
Minimum Humidity 78    
Precipitation  
Precipitation 0.00 in - - ()
Sea Level Pressure  
Sea Level Pressure 29.56 in    
Wind  
Wind Speed 11 mph (West)    
Max Wind Speed 18 mph    
Max Gust Speed 24 mph    
Visibility 5 miles    
Events Snow    
Averages and records for this station are not official NWS values.
T = Trace of Precipitation, MM = Missing Value Source: NWS Daily Summary

Daily Weather History Graph

Daily Weather History Graph

Search for Another Location

Airport:

Trip Planner

Search our weather history database for the weather conditions in past years. The results will help you decide how hot, cold, wet, or windy it might be!

Date:

Astronomy

Jan. 13, 2012 Rise Set
Actual Time 8:04 AM EST 5:24 PM EST
Civil Twilight 7:32 AM EST 5:56 PM EST
Nautical Twilight 6:58 AM EST 6:31 PM EST
Astronomical Twilight 6:24 AM EST 7:05 PM EST
Moon 10:45 PM EST (1/13) 10:10 AM EST (1/13)
Length of Visible Light 10h 23m
Length of Day
9h 20m
Waning Gibbous, 79% of the Moon is Illuminated
Jan 13
Waning Gibbous
Jan 16
Last Quarter
Jan 23
New
Jan 30
First Quarter
Feb 7
Full

Hourly Weather History & Observations

Time (EST) Temp. Windchill Dew Point Humidity Pressure Visibility Wind Dir Wind Speed Gust Speed Precip Events Conditions
12:14 AM 22.8 °F 10.9 °F 19.0 °F 85% 29.35 in 5.0 mi SW 12.7 mph 20.7 mph N/A Snow Light Snow
12:35 AM 22.3 °F 9.7 °F 18.5 °F 85% 29.34 in 5.0 mi WSW 13.8 mph 20.7 mph N/A Snow Light Snow
12:54 AM 22.1 °F 10.6 °F 18.5 °F 86% 29.34 in 7.0 mi SW 11.5 mph 19.6 mph N/A   Overcast
1:14 AM 21.9 °F 7.3 °F 18.0 °F 85% 29.34 in 5.0 mi SW 18.4 mph 21.9 mph N/A   Overcast
1:35 AM 21.2 °F 8.3 °F 17.2 °F 85% 29.34 in 5.0 mi SW 13.8 mph 24.2 mph N/A Snow Light Snow
1:54 AM 20.8 °F 7.9 °F 17.2 °F 86% 29.34 in 1.5 mi SW 13.8 mph 19.6 mph N/A Snow Light Snow
2:15 AM 20.8 °F 11.2 °F 18.0 °F 89% 29.35 in 1.0 mi SW 8.1 mph 16.1 mph N/A Snow Light Snow
2:35 AM 20.7 °F 8.8 °F 17.6 °F 88% 29.35 in 2.0 mi SW 11.5 mph 17.3 mph N/A Snow Light Snow
2:54 AM 20.3 °F 9.0 °F 17.6 °F 89% 29.36 in 1.8 mi SW 10.4 mph - N/A Snow Light Snow
3:15 AM 20.3 °F 10.6 °F 17.6 °F 89% 29.36 in 2.5 mi SW 8.1 mph - N/A Snow Light Snow
3:34 AM 20.1 °F 9.5 °F 17.1 °F 88% 29.36 in 3.0 mi SW 9.2 mph 16.1 mph N/A Snow Light Snow
4:15 AM 20.3 °F 9.0 °F 17.2 °F 88% 29.36 in 2.5 mi SW 10.4 mph - N/A Snow Light Snow
4:35 AM 20.3 °F 9.0 °F 17.4 °F 89% 29.36 in 2.5 mi SW 10.4 mph - N/A Snow Light Snow
4:54 AM 20.3 °F 11.5 °F 17.6 °F 89% 29.36 in 2.5 mi SW 6.9 mph - N/A Snow Light Snow
5:15 AM 20.3 °F 9.8 °F 17.6 °F 89% 29.36 in 3.0 mi SW 9.2 mph - N/A Snow Light Snow
5:34 AM 20.3 °F 12.5 °F 17.6 °F 89% 29.36 in 4.0 mi SW 5.8 mph - N/A Snow Light Snow
5:55 AM 20.7 °F 14.2 °F 18.0 °F 89% 29.37 in 5.0 mi SW 4.6 mph - N/A Snow Light Snow
6:15 AM 20.8 °F 14.4 °F 18.3 °F 90% 29.37 in 3.0 mi SW 4.6 mph - N/A Snow Light Snow
6:34 AM 21.0 °F 10.6 °F 18.5 °F 90% 29.38 in 3.0 mi WSW 9.2 mph - N/A Snow Light Snow
6:55 AM 21.2 °F 12.6 °F 19.0 °F 91% 29.39 in 2.0 mi WSW 6.9 mph - N/A Snow Light Snow
7:15 AM 21.6 °F 13.0 °F 19.6 °F 92% 29.40 in 1.8 mi WSW 6.9 mph - N/A Snow Light Snow
7:55 AM 22.8 °F 12.2 °F 21.2 °F 93% 29.42 in 1.8 mi WSW 10.4 mph - N/A Snow Light Snow
8:14 AM 23.5 °F 14.5 °F 21.9 °F 94% 29.42 in 1.2 mi WSW 8.1 mph - N/A Snow Light Snow
8:35 AM 24.8 °F 15.3 °F 23.4 °F 94% 29.43 in 1.2 mi West 9.2 mph - N/A Snow Light Snow
8:54 AM 26.1 °F 17.6 °F 24.6 °F 94% 29.45 in 1.2 mi West 8.1 mph - N/A Snow Light Snow
9:15 AM 27.5 °F 16.8 °F 25.7 °F 93% 29.46 in 1.5 mi West 12.7 mph 19.6 mph N/A Snow Light Snow
9:35 AM 28.2 °F 18.3 °F 25.9 °F 91% 29.48 in 1.5 mi WNW 11.5 mph 17.3 mph N/A Snow Light Snow
9:54 AM 28.4 °F 18.0 °F 26.2 °F 92% 29.49 in 1.5 mi WNW 12.7 mph 19.6 mph N/A Snow Light Snow
10:15 AM 28.0 °F 17.0 °F 25.3 °F 90% 29.50 in 2.0 mi WNW 13.8 mph 20.7 mph N/A Snow Light Snow
10:35 AM 27.5 °F 16.3 °F 24.3 °F 88% 29.52 in 3.0 mi WNW 13.8 mph 21.9 mph N/A Snow Light Snow
10:54 AM 27.5 °F 17.4 °F 23.5 °F 85% 29.53 in 7.0 mi WNW 11.5 mph - N/A   Overcast
11:15 AM 27.1 °F 17.5 °F 23.0 °F 84% 29.55 in 5.0 mi NW 10.4 mph 16.1 mph N/A Snow Light Snow
11:34 AM 26.6 °F 15.2 °F 22.5 °F 84% 29.56 in 3.0 mi NW 13.8 mph 18.4 mph N/A Snow Light Snow
11:54 AM 26.1 °F 15.6 °F 21.2 °F 82% 29.56 in 4.0 mi NW 11.5 mph 18.4 mph N/A Snow Light Snow
12:15 PM 26.1 °F 15.6 °F 21.7 °F 84% 29.57 in 5.0 mi WNW 11.5 mph 16.1 mph N/A Snow Light Snow
12:34 PM 26.2 °F 17.8 °F 21.6 °F 82% 29.58 in 7.0 mi NW 8.1 mph 17.3 mph N/A Snow Light Snow
12:55 PM 25.7 °F 14.0 °F 19.8 °F 78% 29.59 in 5.0 mi NW 13.8 mph 19.6 mph N/A Snow Light Snow
1:14 PM 26.1 °F 17.6 °F 20.5 °F 79% 29.60 in 2.0 mi NW 8.1 mph - N/A Snow Light Snow
1:34 PM 26.6 °F 18.2 °F 21.7 °F 82% 29.61 in 0.8 mi NW 8.1 mph - N/A Snow Light Snow
2:14 PM 26.6 °F 17.5 °F 21.9 °F 82% 29.63 in 0.8 mi NW 9.2 mph - N/A Snow Light Snow
2:35 PM 26.6 °F 15.2 °F 21.0 °F 79% 29.64 in 5.0 mi WNW 13.8 mph 18.4 mph N/A Snow Light Snow
2:55 PM 27.0 °F 18.0 °F 21.2 °F 79% 29.66 in 5.0 mi WNW 9.2 mph 16.1 mph N/A Snow Light Snow
3:14 PM 26.6 °F 16.8 °F 21.0 °F 79% 29.67 in 3.0 mi NW 10.4 mph - N/A Snow Light Snow
3:35 PM 26.4 °F 17.3 °F 21.2 °F 81% 29.69 in 1.8 mi WNW 9.2 mph - N/A Snow Light Snow
3:54 PM 26.2 °F 14.7 °F 21.4 °F 82% 29.70 in 3.0 mi WNW 13.8 mph - N/A Snow Light Snow
4:14 PM 25.7 °F 13.1 °F 20.1 °F 79% 29.72 in 1.8 mi NW 16.1 mph 21.9 mph N/A Snow Light Snow
4:35 PM 24.8 °F 14.6 °F 20.3 °F 83% 29.73 in 4.0 mi NW 10.4 mph 17.3 mph N/A Snow Light Snow
4:54 PM 25.2 °F 14.4 °F 20.3 °F 82% 29.75 in 7.0 mi WNW 11.5 mph - N/A Snow Light Snow
5:14 PM 24.8 °F 14.6 °F 20.3 °F 83% 29.77 in 10.0 mi WNW 10.4 mph - N/A Snow Light Snow
5:35 PM 24.8 °F 14.0 °F 20.1 °F 82% 29.78 in 10.0 mi NW 11.5 mph - N/A Snow Light Snow
5:55 PM 25.2 °F 17.3 °F 19.9 °F 81% 29.79 in 7.0 mi NW 6.9 mph - N/A Snow Light Snow
6:15 PM 24.6 °F 15.8 °F 19.8 °F 82% 29.80 in 10.0 mi NW 8.1 mph - N/A   Overcast
6:35 PM 24.6 °F 15.8 °F 20.1 °F 83% 29.81 in 10.0 mi WNW 8.1 mph - N/A   Overcast
6:54 PM 24.6 °F 16.7 °F 19.9 °F 82% 29.82 in 10.0 mi WNW 6.9 mph - N/A Snow Light Snow
7:15 PM 24.6 °F 14.4 °F 19.8 °F 82% 29.83 in 10.0 mi WNW 10.4 mph - N/A   Overcast
7:35 PM 24.4 °F 14.2 °F 18.5 °F 78% 29.84 in 10.0 mi WNW 10.4 mph - N/A   Overcast
7:54 PM 24.4 °F 15.6 °F 18.7 °F 79% 29.85 in 10.0 mi WNW 8.1 mph - N/A   Overcast
8:15 PM 24.4 °F 15.6 °F 19.0 °F 80% 29.85 in 10.0 mi NW 8.1 mph - N/A Snow Light Snow
8:35 PM 24.4 °F 16.5 °F 19.4 °F 81% 29.86 in 7.0 mi WNW 6.9 mph - N/A Snow Light Snow
8:54 PM 25.2 °F 18.3 °F 19.4 °F 79% 29.87 in 5.0 mi NW 5.8 mph - N/A Snow Light Snow
9:15 PM 24.3 °F 16.3 °F 19.2 °F 81% 29.87 in 10.0 mi NNW 6.9 mph - N/A Snow Light Snow
9:34 PM 23.2 °F 15.0 °F 18.0 °F 80% 29.88 in 10.0 mi NNW 6.9 mph - N/A Snow Light Snow
9:54 PM 23.0 °F 17.0 °F 17.6 °F 80% 29.88 in 10.0 mi NNW 4.6 mph - N/A   Overcast
10:15 PM 22.8 °F 16.7 °F 17.4 °F 80% 29.88 in 7.0 mi NNW 4.6 mph - N/A Snow Light Snow
10:34 PM 22.8 °F 16.7 °F 17.4 °F 80% 29.89 in 7.0 mi NNW 4.6 mph - N/A Snow Light Snow
10:54 PM 22.5 °F 14.1 °F 16.3 °F 77% 29.90 in 10.0 mi NNW 6.9 mph - N/A Snow Light Snow
11:15 PM 22.1 °F 15.9 °F 16.3 °F 79% 29.90 in 7.0 mi NNW 4.6 mph - N/A Snow Light Snow
11:35 PM 23.0 °F 17.0 °F 16.7 °F 77% 29.91 in 7.0 mi NW 4.6 mph - N/A Snow Light Snow
11:55 PM 22.8 °F 18.2 °F 17.2 °F 79% 29.91 in 4.0 mi NW 3.5 mph - N/A Snow Light Snow